Home > Weather > Road Town > Past weeks

Flag for British Virgin Islands Weather for the Past 2 Weeks in Road Town, Tortola, British Virgin Islands

Now
75 °F

Passing clouds.


Feels Like: 75 °F
Forecast: 75 / 79 °F
Wind: 6 mph from East

Location: Cyril E. King International Airport

Current Time: Feb 13, 2016 at 3:39:02 AM

Latest Report: Feb 13, 2016 at 2:53 AM


Visibility: 10 mi

Pressure: 30.01 "Hg

Humidity: 82%

Dew point: 69 °F

Location of Road TownLocation

Historic Weather in Road Town — Graph

°F

Road Town Temperature Yesterday

Maximum temperature yesterday: 84 °F (at 10:53 AM)
Minimum temperature yesterday: 74 °F (at 1:53 AM)
Average temperature yesterday: 78 °F

High & Low Weather Summary for the Past Weeks

 TemperatureHumidityPressure
High84 °F (Feb 12, 10:53 AM)97% (Jan 30, 7:53 AM)30.15 "Hg (Jan 30, 7:53 AM)
Low71 °F (Feb 5, 6:53 AM)53% (Feb 4, 10:53 AM)29.89 "Hg (Feb 4, 3:53 PM)
Average78 °F75%30.03 "Hg
* Reported Jan 29 1:53 AM — Feb 13 1:53 AM, Road Town, Weather by CustomWeather, © 2016

Note: Actual official high and low records may vary slightly from our data, if they occured in-between our weather recording intervals... More about our weather records

Advertising

Road Town Weather History for the Previous 24 Hours

 ConditionsComfort  
Time TempWeatherWind HumidityBarometerVisibility
1:53 AM
Sat, Feb 13
76 °FClear.5 mph77%30.03 "Hg10 mi
12:53 AM76 °FClear.8 mph77%30.05 "Hg10 mi
11:53 PM
Fri, Feb 12
76 °FClear.8 mph77%30.06 "Hg10 mi
10:53 PM77 °FPassing clouds.9 mph74%30.07 "Hg10 mi
9:53 PM78 °FPassing clouds.7 mph71%30.08 "Hg10 mi
8:53 PM76 °FClear.9 mph77%30.07 "Hg10 mi
8:11 PM76 °FPassing clouds.8 mph80%30.07 "Hg10 mi
7:53 PM77 °FPassing clouds.7 mph79%30.06 "Hg10 mi
6:53 PM77 °FClear.13 mph77%30.05 "Hg10 mi
5:53 PM78 °FScattered clouds.9 mph71%30.05 "Hg10 mi
4:53 PM79 °FScattered clouds.13 mph74%30.04 "Hg10 mi
3:53 PM81 °FPassing clouds.15 mph67%30.03 "Hg10 mi
2:53 PM82 °FScattered clouds.12 mph65%30.04 "Hg10 mi
1:53 PM84 °FPassing clouds.12 mph57%30.06 "Hg10 mi
12:53 PM82 °FPassing clouds.13 mph63%30.09 "Hg10 mi
11:53 AM82 °FScattered clouds.12 mph63%30.12 "Hg10 mi
10:53 AM84 °FPassing clouds.13 mph57%30.14 "Hg10 mi
9:53 AM81 °FSunny.10 mph65%30.15 "Hg10 mi
8:53 AM80 °FScattered clouds.13 mph71%30.13 "Hg10 mi
7:53 AM78 °FPartly sunny.7 mph79%30.11 "Hg10 mi
6:53 AM74 °FPartly sunny.8 mph88%30.10 "Hg10 mi
5:53 AM76 °FPassing clouds.8 mph82%30.08 "Hg10 mi
4:53 AM76 °FClear.8 mph82%30.06 "Hg10 mi
3:53 AM76 °FClear.8 mph82%30.06 "Hg10 mi
Weather by CustomWeather, © 2016

See weather overviewHow to use our weather pages